Weather Roundup
Issued by NWS Corpus Christi, TX

Home | Current Version | Previous Version | Text Only | Print | Product List | Glossary On
Versions: 1 2 3 4 5 6 7 8 9 10 11 12 13 14 15 16 17 18 19 20 21 22 23 24 25 26 27 28 29 30 31 32 33 34 35 36 37 38 39 40 41 42 43 44 45 46 47 48 49 50
000
ASUS44 KCRP 210710
HRRCRP

SOUTH TEXAS REGIONAL WEATHER ROUNDUP
NATIONAL WEATHER SERVICE CORPUS CHRISTI TX
200 AM CDT TUE OCT 21 2014


TXZ229>244-210800-
...CORPUS CHRISTI AREA OBSERVATIONS...

CITY           SKY/WX    TMP DP  RH WIND       PRES   REMARKS
CORPUS CHRISTI MOCLDY    73  70  90 NE7       29.96S
NAS CORPUS CHR PTCLDY    76  73  91 E12       29.95S
ROCKPORT       CLEAR     74  69  85 E7        29.97S
KINGSVILLE NAS CLEAR     71  71 100 NE6       29.96S
ALICE          CLEAR     70  68  93 NE7       29.96F FOG
FALFURRIAS     CLEAR     69  67  95 CALM      29.96S
$$

...VICTORIA AREA OBSERVATIONS...

CITY           SKY/WX    TMP DP  RH WIND       PRES   REMARKS
VICTORIA       CLEAR     64  62  93 NE5       30.00S FOG
BEEVILLE       FAIR      68  68  99 NE5       29.99S
PLEASANTON     CLEAR     65  58  80 CALM      30.02S
SAN ANTONIO    MOCLDY    68  59  73 NE3       30.03R
$$

...LAREDO AREA OBSERVATIONS...

CITY           SKY/WX    TMP DP  RH WIND       PRES   REMARKS
LAREDO         PTCLDY    70  67  90 CALM      30.00F
COTULLA        PTCLDY    71  64  78 E5        30.00S
DEL RIO        CLOUDY    71  60  68 E6        30.00S
MCALLEN        PTCLDY    73  70  90 N5        29.94F
HEBBRONVILLE   PTCLDY    69  67  94 CALM      29.99S
$$

...OTHER TEXAS OBSERVATIONS...

CITY           SKY/WX    TMP DP  RH WIND       PRES   REMARKS
BROWNSVILLE    CLEAR     73  69  87 NE5       29.92F
HOUSTON        MOCLDY    61  56  83 N5        30.01F
COL. STATION   MOCLDY    64  59  83 CALM      30.03R
AUSTIN         PTCLDY    60  59  96 CALM      30.03S
WACO           PTCLDY    59  58  96 CALM      30.04R
FORT WORTH     CLEAR     65  58  78 CALM      30.04S
WICHITA FALLS  CLEAR     63  57  81 S9        30.04R
LUBBOCK        PTCLDY    57  51  80 S6        30.10S
EL PASO        MOCLDY    61  55  81 N9        30.07S
$$

...MARINE OBSERVATIONS...

STATION/POSITION TIME  SKY/WX   TEMP    WIND        PRES    VSBY  WAVE   SWELL
                                AIR SEA DIR/SP/G                  HT/PER HT/PER
                 (UTC)          (F)     (DEG/KT/KT) (MB)    (MI)  (FT/S) (FT/S)
PORT ARANSAS     0700            77 77   60/ 15/ 16 1014.7F
BUOY 90 E PORT A 0700            78 81   60/ 16/ 17 1014.5F         4/ 6
BUOY 45 SE BAFFI 0700            79 81   70/ 16/ 19 1012.7F         5/ 6
BUOY 200 E PT IS 0700            80 81   60/ 16/ 19 1012.0F         4/ 6
BUOY 15 E GALVES 0700            75 78   70/ 12/ 14 1015.2R         3/ 4   2/ 6
$$


USA.gov is the U.S. government's official web portal to all federal, state and local government web resources and services.